1998-067LQ

Last updated on Thu May 25 2017 00:15:03 GMT+0000 (Coordinated Universal Time)

1 42707U 98067LQ 17144.31845534 .00011143 00000-0 16972-3 0 9998 2 42707 51.6426 157.2337 0000651 291.2101 164.6608 15.55027021 1125

Satellite not in orbit

1998-067LQ